Regional Weather Roundup
Issued by NWS Portland, ME

Current Version | Previous Version | Text Only | Print | Product List | Glossary Off
Versions: 1 2 3 4 5 6 7 8 9 10 11 12 13 14 15 16 17 18 19 20 21 22 23 24 25 26 27 28 29 30 31 32 33 34 35 36 37 38 39 40 41 42 43 44 45 46 47 48 49 50
000 ASUS41 KGYX 220205 RWRGYX WEATHER ROUNDUP FOR MAINE AND NEW HAMPSHIRE NATIONAL WEATHER SERVICE GRAY ME 1000 PM EDT FRI SEP 21 2018 MEZ002-005-006-010-012-015-018-020-021-024-026-027-029-220300- MAINE CITY SKY/WX TMP DP RH WIND PRES REMARKS PORTLAND CLOUDY 64 58 80 S12G23 29.91F SANFORD CLOUDY 64 58 80 SW9 29.92S BAR HARBOR CLOUDY 62 57 83 S23G31 29.90F WISCASSET CLOUDY 63 58 83 SW18G30 29.92F ROCKLAND CLOUDY 62 59 90 SW13G20 29.92F FRYEBURG CLOUDY 63 59 87 SW9 29.87F LEWISTONAUBURN CLOUDY 63 57 81 S14G23 29.88F AUGUSTA CLOUDY 62 56 80 S10G24 29.86F WATERVILLE CLOUDY 62 56 80 S10G18 29.82F BANGOR CLOUDY 61 57 87 S18G24 29.85F GREENVILLE N/A 55 55 100 S12G23 29.74F MILLINOCKET CLOUDY 57 54 89 S14G24 29.76F HOULTON CLOUDY 57 54 89 S12G26 29.76F PRESQUE ISLE CLOUDY 57 53 86 S24G36 29.67F FRENCHVILLE CLOUDY 56 51 84 S18G28 29.60F CARIBOU CLOUDY 57 52 83 S15G31 29.66F $$ NHZ002-005-008-009-011-012-014-220300- NEW HAMPSHIRE CITY SKY/WX TMP DP RH WIND PRES REMARKS ROCHESTER CLOUDY 64 59 83 VRB7 29.91F NASHUA CLOUDY 67 63 87 VRB5G21 29.94F MANCHESTER CLOUDY 67 60 78 S13G22 29.90F CONCORD CLOUDY 65 59 81 S10 29.91F LACONIA CLOUDY 64 59 83 S12G21 29.89F PLYMOUTH CLOUDY 64 58 83 CALM 29.86F BERLIN FAIR 60 57 89 CALM 29.79F WHITEFIELD MOCLDY 68 59 73 S8G21 29.78F JAFFREY CLOUDY 64 63 96 S12G23 29.95F KEENE CLOUDY N/A N/A N/A S17G23 29.92F LEBANON CLOUDY 66 59 78 S16 29.84F MT WASHINGTON FOG 50 50 100 SW53G74 N/A VSB 0 $$ VTZ005-007-008-220300- VERMONT CITY SKY/WX TMP DP RH WIND PRES REMARKS ST JOHNSBURY N/A 64 60 87 MISG 29.77F MONTPELIER CLOUDY 65 62 90 S13G21 29.80F BURLINGTON FAIR 70 62 76 S29G45 29.70S $$ MAZ007-012-024-CTZ003-RIZ002-NYZ038-NYZ072-220300- SOUTHERN NEW ENGLAND AND NY CITY SKY/WX TMP DP RH WIND PRES REMARKS BOSTON MOCLDY 68 61 78 SW18G25 29.97S WORCESTER CLOUDY 64 61 90 SW18G28 29.99S NANTUCKET FAIR 66 62 87 S13 30.06F PROVIDENCE MOCLDY 67 63 87 SW10 30.03R HARTFORD CLOUDY 70 64 81 S14 29.97S ALBANY MOCLDY 70 63 78 S20G29 29.88S NEW YORK CITY CLOUDY 74 63 68 SW15G23 30.02R $$ ANZ081-ANZ082-ANZ150-NHZ014-MEZ023>029-220300- COASTAL MARINE OBSERVATIONS STATION/POSITION TIME TEMP WIND PRES WAVE AIR SEA DIR/SP/G HT/PER (UTC) (F) (DEG/KT/KT) (MB) (FT/S) MOUNT DESERT ROC 0100 61 180/ 24/ 27 1014.7F MATINICUS ROCK 0100 61 190/ 29/ 31 1013.8F ISLE OF SHOALS 0100 64 200/ 24/ 27 1013.4F JEFFREYS LEDGE 0106 63 N/A 6/ 5 $$ .............KEY.............. WCI - WIND CHILL TC - TEMPERATURE IN CELSIUS VSB - VISIBILITY IN MILES HX - HEAT INDEX FAIR- INDICATES FEW OR NO CLOUDS BELOW 12,000 FT, WITH NO SIGNIFICANT WEATHER AND/OR OBSTRUCTIONS TO VISIBILITY.

USA.gov is the U.S. government's official web portal to all federal, state and local government web resources and services.